Location: Gombori
(14.9797°N, 2.9419°W)
Time: 00:21:02
(UTC+00:00)

Cosmos 2150 Rocket - Pass Details

Date: 07 December 2021
Orbit: 748 x 808 km, 74.0° (Epoch: 23 January)

Event Time Altitude Azimuth Distance (km) Brightness Sun altitude
Rises 18:06:38 0° 17° (NNE) 3,219 6.9 -6.4°
Reaches altitude 10° 18:10:21 10° 44° (NE) 2,306 5.9 -7.3°
Maximum altitude 18:12:47 13° 72° (ENE) 2,095 5.6 -7.8°
Drops below altitude 10° 18:15:14 10° 100° (E) 2,324 6.0 -8.4°
Sets 18:18:58 0° 127° (SE) 3,266 6.9 -9.2°
